Location: Bromfield
(51.2333°N, 0.6667°E)
Time: 02:56:00
(UTC+00:00)

Daily predictions for brighter satellites

Satellite Brightness Start Highest point End
(mag) Time Altitude Azimuth Time Altitude Azimuth Time Altitude Azimuth
ATLAS 3B R/B 4.4 00:52:22 26° NNE 00:52:22 26° NNE 00:55:36 10° NE
CENTAUR R/B 4.3 01:28:40 29° NNW 01:30:50 33° N 01:38:11 10° ENE
Cosmos 2082 Rocket 4.2 01:57:46 24° ENE 01:57:46 24° ENE 02:00:18 10° NE
Resurs 1-4 Rocket 4.3 01:53:56 10° NNE 01:55:39 21° NNE 01:55:39 21° NNE
Cosmos 2322 Rocket 4.2 01:59:13 10° NNW 02:08:18 13° E 02:09:00 10° ESE
ADEOS Rocket 4.5 02:15:58 27° N 02:15:58 27° N 02:18:35 10° N
ARIANE 5 R/B 4.4 02:20:30 10° NNE 02:23:19 25° ENE 02:23:19 25° ENE
ADEOS II 3.9 02:21:20 10° NNE 02:23:45 28° NNE 02:23:45 28° NNE
IDEFIX/ARIANE 42P 4.1 02:30:07 10° NNE 02:33:14 33° NE 02:33:14 33° NE
ATLAS 3B R/B 4.1 02:39:36 25° NNW 02:41:31 29° N 02:47:27 10° ENE
Lacrosse 5 3.6 02:44:44 30° ENE 02:44:44 30° ENE 02:47:34 10° E
NOSS 3-1 (C) 4.1 02:49:50 49° N 02:49:50 49° N 02:55:09 10° NE
CZ-2D R/B 4.0 02:49:17 10° N 02:51:13 21° NNW 02:51:13 21° NNW
CZ-2C R/B 4.3 02:52:55 10° NE 02:56:40 22° E 02:57:30 21° ESE
USA 267 3.2 02:52:49 10° ENE 02:58:58 80° ENE 02:58:58 80° ENE
GEOS 3 Rocket 4.3 03:06:08 10° NE 03:10:21 50° N 03:10:21 50° N
Cosmos 2360 Rocket 3.0 03:12:03 10° NNW 03:17:35 48° NE 03:23:04 10° SE
Iridium 4 Rocket 4.1 03:22:00 46° NE 03:22:00 46° NE 03:25:26 10° NNE
CENTAUR R/B 3.7 03:15:48 10° NW 03:23:14 54° NNE 03:31:44 10° ESE
Cosmos 1745 Rocket 4.4 03:21:47 10° N 03:28:01 62° ENE 03:34:17 10° SSE
USA 229 DEB 3.9 03:29:40 51° NW 03:30:13 52° NNW 03:37:05 10° NE
USA 229 3.9 03:29:45 51° NW 03:30:18 52° NNW 03:37:11 10° NE
SL-08 R/B 4.4 03:24:08 10° N 03:30:22 85° E 03:31:59 52° SSE
Cosmos 2333 Rocket 3.8 03:26:51 10° NNW 03:32:06 34° NE 03:37:20 10° ESE
SL-08 ROCKET BODY 4.4 03:27:17 10° N 03:33:26 85° E 03:35:37 43° SSE
Cosmos 1269 Rocket 4.4 03:35:37 53° SE 03:36:18 57° ESE 03:41:31 10° NNE
Resurs 1-4 Rocket 4.2 03:34:57 10° NNW 03:36:44 15° NNW 03:36:44 15° NNW
Cosmos 2082 Rocket 2.8 03:39:37 45° NW 03:39:37 45° NW 03:44:36 10° NNE
Cosmos 2221 3.5 03:38:53 42° ESE 03:39:23 44° E 03:43:33 10° NNE
Lacrosse 4 Rocket 2.4 03:39:47 40° N 03:40:53 49° NE 03:45:12 10° ESE
COSMOS 2406 4.5 03:44:19 28° NW 03:44:19 28° NW 03:48:58 10° NNE
Cosmos 1833 Rocket 3.9 03:45:37 28° NW 03:45:37 28° NW 03:50:04 10° NNE
NOSS 3-1 (A) 3.9 03:46:12 44° NW 03:46:55 47° NNW 03:53:32 10° NE
SL-27 R/B 3.9 03:48:45 37° ENE 03:48:45 37° ENE 03:51:31 10° NE
Cosmos 2322 Rocket 2.6 03:43:02 10° NNW 03:50:23 45° S 03:54:20 10° SSE
ISS -2.1 03:57:03 34° E 03:57:03 34° E 03:59:05 10° E
Meteor 1-4 Rocket 3.4 03:58:28 47° E 03:58:31 47° E 04:02:02 10° NNE
Meteor 2-15 4.4 03:59:20 56° WSW 04:00:09 61° WNW 04:06:16 10° N
Cosmos 1500 Rocket 3.7 03:57:36 10° N 04:01:58 72° ENE 04:06:20 10° SSE
COSMOS 2428 4.0 03:57:14 10° NNW 04:02:37 40° NE 04:07:58 10° ESE
Cosmos 2219 Rocket 3.3 03:58:19 10° NNW 04:03:45 45° NE 04:09:10 10° ESE
Cosmos 1386 Rocket 4.4 03:57:44 10° NNW 04:04:12 81° W 04:10:32 10° S
ARIANE 5 R/B 3.0 03:59:26 10° N 04:03:40 43° NW 04:03:40 43° NW
Landsat 5 3.4 04:04:23 72° E 04:04:31 74° ENE 04:08:25 10° NNW
NOSS 2-2 (D) 3.4 04:06:06 65° NE 04:06:06 65° NE 04:09:34 10° NE
ADEOS II 3.7 04:01:57 10° N 04:04:42 19° NW 04:04:42 19° NW
Cosmos 1606 4.0 04:11:11 12° SSE 04:14:32 40° E 04:18:12 10° NNE
IDEFIX/ARIANE 42P 3.5 04:10:03 10° N 04:14:04 30° NW 04:14:04 30° NW
MSX 4.1 04:09:35 10° N 04:15:00 44° WNW 04:15:38 43° W
H-2A R/B 2.4 04:10:58 10° SSE 04:15:09 62° ENE 04:19:18 10° N
Cosmos 1842 Rocket 3.4 04:14:46 66° SSW 04:15:20 81° W 04:19:42 10° N
Spot 4 Rocket 4.1 04:12:37 10° N 04:17:37 52° WNW 04:18:17 49° W
Meteor 2-2 Rocket 4.3 04:14:24 21° SSW 04:18:33 88° WNW 04:24:38 10° NNE
Meteor 1-27 4.5 04:18:27 44° W 04:18:55 45° WNW 04:24:16 10° N
USA 238 DEB 3.8 04:13:15 10° NW 04:20:29 89° NE 04:28:03 10° SE
USA 238 3.8 04:13:22 10° NW 04:20:35 89° NE 04:28:08 10° SE
Cosmos 1553 Rocket 4.1 04:20:44 35° SW 04:23:13 57° WNW 04:29:25 10° N
Cosmos 1417 Rocket 4.5 04:22:45 30° SSW 04:25:57 62° WNW 04:32:16 10° N
Lacrosse 5 1.8 04:23:57 36° WNW 04:26:02 87° SSW 04:31:07 10° ESE
Cosmos 2322 3.8 04:22:36 10° NNW 04:28:20 76° ENE 04:34:00 10° SE
Cosmos 2251 Rocket 4.4 04:25:10 10° S 04:30:17 49° ESE 04:35:28 10° NNE
CZ-4B R/B 3.3 04:28:26 10° SE 04:31:10 29° ENE 04:33:53 10° N
Cosmos 2344 3.7 04:25:35 19° SSW 04:31:10 72° SE 04:39:13 10° NE
ATLAS 3B R/B 3.9 04:27:38 10° NW 04:34:00 39° NNE 04:40:39 10° E
Cosmos 2315 Rocket 4.2 04:28:44 10° S 04:34:54 75° E 04:41:07 10° NNE
CZ-2C R/B 2.4 04:30:33 10° N 04:35:17 55° WNW 04:36:54 37° SW
SeaSat 1 2.3 04:31:07 10° SSE 04:36:03 86° SW 04:41:02 10° NNW
Cosmos 2237 4.4 04:30:57 10° NW 04:36:25 46° WSW 04:41:49 10° S
METEOR-M 4.4 04:33:20 10° NNE 04:38:42 71° ESE 04:44:01 10° S
Meteor 2-17 Rocket 4.3 04:34:16 10° NNW 04:40:21 84° W 04:46:24 10° S
Cosmos 1833 4.4 04:36:00 12° SSW 04:41:11 70° ESE 04:46:48 10° NNE
CZ-2C R/B 3.6 04:37:45 10° N 04:40:59 33° NW 04:40:59 33° NW
USA 267 3.6 04:35:52 10° ENE 04:42:15 58° N 04:46:19 23° W
Geosat 3.9 04:38:14 10° NNE 04:43:19 87° WNW 04:46:52 20° SW
FENGYUN 3A 3.6 04:39:53 10° NNE 04:45:21 81° WNW 04:50:48 10° SSW
Meteor 1-31 Rocket 3.7 04:43:56 10° NNE 04:47:44 49° E 04:51:29 10° S
ALOS 2.2 04:43:59 10° N 04:48:40 74° WNW 04:53:17 10° SSW
NOSS 3-2 (A) 4.1 04:44:20 10° NW 04:51:39 61° SW 04:59:55 10° SSE
PSLV R/B 3.8 04:48:11 10° N 04:52:25 48° WNW 04:54:38 25° SW
NOSS 2-2 (C) 3.8 04:53:39 33° WNW 04:54:39 40° NW 04:58:35 10° NE
COSMOS 2487 2.8 04:53:18 11° S 04:56:34 61° ESE 04:59:58 10° NNE
CZ-4B R/B 4.1 04:55:12 10° NNE 04:58:58 65° ESE 05:02:35 10° S
Cosmos 2333 4.2 04:53:24 10° NW 04:59:08 63° WSW 05:04:50 10° SSE
Cosmos 2074 Rocket 4.4 04:52:58 10° N 04:59:11 68° ENE 05:05:21 10° SSE
Cosmos 2360 Rocket 2.7 04:56:19 10° NW 05:01:29 36° WSW 05:06:36 10° S
Cosmos 1805 Rocket 3.6 04:57:52 10° NNW 05:02:14 54° W 05:06:35 10° S
MOS 1 Rocket 3.1 04:58:21 10° SSE 05:02:44 88° W 05:07:21 10° NNW
Cosmos 1743 Rocket 4.3 04:58:52 10° NNW 05:02:49 31° W 05:06:44 10° SSW
Iridium 51 4.4 04:59:14 10° N 05:03:15 74° E 05:06:56 10° S
Cosmos 2237 Rocket 3.4 04:59:53 10° NNW 05:05:21 44° NE 05:10:46 10° ESE
COSMO-SKYMED 1 2.5 05:02:32 10° SSE 05:06:53 84° WSW 05:11:16 10° NNW
Cosmos 614 Rocket 4.4 05:03:05 10° S 05:08:15 66° ESE 05:13:27 10° NNE
NOSS 2-2 (E) 4.4 05:07:09 22° WNW 05:08:41 30° NNW 05:12:33 10° NE
Cosmos 1782 4.3 05:06:17 10° SSE 05:09:59 40° E 05:13:43 10° NNE
Cosmos 1484 Rocket 2.9 05:07:25 10° N 05:11:01 46° WNW 05:14:13 12° SW
S3M 4.5 05:06:22 14° SW 05:11:09 37° WNW 05:16:52 10° N
Cosmos 1437 Rocket 4.2 05:09:05 10° SSE 05:12:58 43° E 05:16:49 10° NNE
CENTAUR R/B 3.2 05:06:29 10° NW 05:14:24 65° SW 05:23:08 10° SSE
Cosmos 2333 Rocket 2.3 05:11:03 10° NW 05:16:42 58° WSW 05:22:20 10° S
Cosmos 2221 3.7 05:15:46 20° W 05:17:10 23° WNW 05:20:41 10° NNW
CZ-2C R/B 4.1 05:12:01 10° SE 05:17:17 43° ENE 05:22:34 10° N
Lacrosse 4 Rocket 2.4 05:16:09 13° WNW 05:19:22 27° WSW 05:23:06 10° S
CSL-04 DEB 4.3 05:15:42 10° S 05:19:38 60° WSW 05:23:33 10° NNW
Cosmos 2184 Rocket 4.1 05:15:11 10° N 05:21:32 89° WSW 05:27:54 10° S
ADEOS 3.5 05:17:29 10° NNE 05:22:44 77° WNW 05:27:56 10° SSW
SL-27 R/B 4.0 05:22:18 18° WNW 05:23:21 21° NW 05:26:09 10° N
GENESIS II 4.3 05:20:30 10° SW 05:24:29 79° SE 05:28:28 10° NE
Cosmos 2082 Rocket 4.1 05:21:27 10° WNW 05:24:41 16° NNW 05:28:04 10° N
SL-16 R/B 4.1 05:20:07 10° NNW 05:25:04 29° NE 05:30:00 10° ESE
Cosmos 1666 Rocket 3.5 05:21:05 10° NNW 05:25:25 64° W 05:29:45 10° S
Sich 1 3.5 05:24:52 10° NNW 05:28:59 38° W 05:33:03 10° SSW
Envisat 4.0 05:24:39 10° NNE 05:29:39 52° E 05:34:35 10° S
NOSS 3-4 (A) 4.4 05:24:54 10° SSW 05:30:29 48° ESE 05:36:29 10° NE
NOSS 3-4 (C) 4.4 05:25:00 10° SSW 05:30:35 47° ESE 05:36:35 10° NE
NOSS 3-2 (C) 4.2 05:23:38 10° NW 05:30:55 57° SW 05:39:09 10° SSE
Cosmos 2322 Rocket 3.8 05:32:29 13° WSW 05:32:29 13° WSW 05:34:11 10° WSW
ISS -3.7 05:30:01 16° W 05:32:33 72° SSW 05:35:55 10° ESE
Meteor 1-4 Rocket 4.2 05:32:39 15° W 05:33:47 17° WNW 05:36:14 10° NNW
CZ-4C R/B 2.9 05:31:58 10° SSW 05:36:48 53° SE 05:42:39 10° NE
PSLV R/B 4.0 05:34:01 10° SSE 05:38:13 87° WSW 05:42:26 10° NNW
Cosmos 1666 4.4 05:37:48 10° N 05:41:22 37° ENE 05:44:56 10° SE
Cosmos 2297 Rocket 4.4 05:38:34 10° SSE 05:43:24 30° ESE 05:48:16 10° NE
ATLAS 2AS CENTAUR R/B 4.1 05:38:07 10° SSW 05:45:38 49° ESE 05:53:03 10° NE
COSMOS 2428 3.0 05:41:34 10° NW 05:47:01 47° WSW 05:52:26 10° S
Cosmos 1689 Rocket 1.9 05:44:39 10° SSE 05:47:27 88° WSW 05:50:20 10° NNW
Cosmos 2219 Rocket 2.6 05:42:27 10° NW 05:47:41 40° WSW 05:52:54 10° S
SJ-12 4.2 05:44:29 10° N 05:48:23 46° WNW 05:52:16 10° SW
Cosmos 1980 3.8 05:43:41 10° NNW 05:49:23 86° ENE 05:55:04 10° SSE
Cosmos 1933 3.7 05:46:18 10° SW 05:50:07 41° WNW 05:53:59 10° N
Cosmos 1606 4.1 05:47:23 10° WSW 05:50:24 21° WNW 05:53:26 10° NNW
Meteor PRIRODA 3.6 05:46:43 10° N 05:50:26 74° WNW 05:54:09 10° SSW
H-2A R/B 3.5 05:48:47 10° SW 05:51:31 17° W 05:54:14 10° NW
Cosmos 1140 Rocket 3.8 05:46:23 10° SSW 05:51:34 75° ESE 05:56:47 10° NNE
Cosmos 909 Rocket 4.1 05:48:27 10° SW 05:55:00 83° NW 06:01:22 10° NE
SKYMED 2 4.4 05:51:18 10° SSW 05:55:08 30° W 05:58:59 10° NNW
BREEZE-M DEB (TANK) 2.3 05:53:41 10° W 05:57:41 66° S 05:59:55 10° E
SAR-Lupe-4 3.5 05:54:56 10° S 05:58:29 65° WSW 06:02:03 10° NNW
Cosmos 1633 Rocket 3.6 05:56:04 10° NNW 06:00:07 36° W 06:04:07 10° SSW
Cosmos 1602 4.3 05:56:44 10° NNW 06:00:21 35° W 06:03:56 10° SSW
Cosmos 1500 3.1 05:56:42 10° NNW 06:00:28 70° W 06:04:14 10° S
Meteor 2-12 Rocket 4.5 05:55:55 10° NNW 06:02:04 76° W 06:08:13 10° S
Meteor 1-14 Rocket 4.3 05:56:51 10° NNW 06:02:26 65° W 06:08:05 10° S
CZ-4B R/B 2.6 06:01:09 10° SW 06:03:25 18° W 06:05:40 10° NW
Cosmos 1242 Rocket 3.5 06:00:20 10° S 06:03:41 51° E 06:07:05 10° NNE
NOSS 0 Rocket 4.0 05:58:04 10° NW 06:04:07 59° WSW 06:10:10 10° SSE
CZ-4B R/B 3.3 06:00:20 10° N 06:04:43 56° WNW 06:09:07 10° SSW
